Location: Newark
(48.1500°N, 2.9667°W)
Time: 15:23:19
(UTC+00:00)

Transit 2A - Pass Details

Date: 28 January 2020
Orbit: 599 x 959 km, 66.7° (Epoch: 25 February)

Event Time Altitude Azimuth Distance (km) Brightness Sun altitude
Rises 04:48:42 0° 318° (NW) 2,996 - -29.5°
Reaches altitude 10° 04:51:03 10° 310° (NW) 2,126 - -29.1°
Maximum altitude 04:55:26 35° 244° (WSW) 1,151 - -28.3°
Exits shadow 05:00:10 10° 180° (S) 2,308 8.4 -27.6°
Drops below altitude 10° 05:00:12 10° 180° (S) 2,319 8.4 -27.5°
Sets 05:02:53 0° 172° (S) 3,307 9.4 -27.1°
